Location: B?lite?ti
(46.2833°N, 22.7333°E)
Time: 15:48:18
(UTC+00:00)

CORIOLIS - Pass Details

Date: 24 January 2021
Orbit: 818 x 839 km, 98.7° (Epoch: 01 March)

Event Time Altitude Azimuth Distance (km) Brightness Sun altitude
Rises 15:58:06 0° 165° (SSE) 3,362 7.4 -6.5°
Reaches altitude 10° 16:00:27 10° 166° (SSE) 2,429 6.7 -6.9°
Maximum altitude 16:05:51 85° 256° (WSW) 836 4.3 -7.8°
Drops below altitude 10° 16:11:15 10° 345° (NNW) 2,433 6.6 -8.7°
Sets 16:13:36 0° 346° (NNW) 3,368 7.3 -9.0°
